period_start,C,m1,H,J0,J1,J2,J3,J4,J5,JA,JB,JC,JD,JJ,JK,JN,#
2017-04-25 00:04:09,0.04,3.38,0.00,24.53,27.52,30.37,14.49,49.03,1023.43,2028.00,2314.29,2290.01,2617.73,600.05,597.08,45.08,0000 0000 0000 0000 000000
2017-04-25 00:09:10,0.05,3.39,0.00,24.53,27.53,30.38,14.46,49.13,1023.22,2028.00,2313.83,2289.59,2617.03,600.08,596.98,45.13,0000 0000 0000 0000 000000
2017-04-25 00:14:11,0.05,3.39,0.00,24.45,27.55,30.38,14.48,49.19,1023.16,2028.00,2313.05,2289.02,2616.41,600.12,597.04,45.18,0000 0000 0000 0000 000000
2017-04-25 00:19:12,0.04,3.39,0.00,24.50,27.55,30.39,14.52,49.17,1023.37,2027.99,2312.45,2288.71,2615.99,600.00,596.88,45.23,0000 0000 0000 0000 000000
2017-04-25 00:24:14,0.04,3.39,0.00,24.50,27.55,30.40,14.49,49.11,1023.45,2027.98,2311.93,2288.04,2615.22,600.19,597.11,45.28,0000 0000 0000 0000 000000
2017-04-25 00:29:15,0.05,3.40,0.00,24.49,27.57,30.40,14.55,49.18,1023.45,2027.98,2311.08,2287.73,2614.80,600.16,597.19,45.33,0000 0000 0000 0000 000000
2017-04-25 00:34:16,0.06,3.40,0.00,24.49,27.57,30.40,14.39,49.15,1023.45,2027.98,2310.37,2287.04,2614.05,599.60,596.69,45.38,0000 0000 0000 0000 000000
2017-04-25 00:39:18,0.07,3.40,0.00,24.48,27.57,30.40,14.46,49.21,1023.46,2027.94,2309.53,2286.50,2613.34,599.87,596.87,45.43,0000 0000 0000 0000 000000
2017-04-25 00:44:19,0.05,3.41,0.00,24.48,27.57,30.43,14.52,49.21,1023.47,2027.96,2308.66,2285.99,2612.73,600.13,597.11,45.48,0000 0000 0000 0000 000000
2017-04-25 00:49:20,0.05,3.41,0.00,24.53,27.59,30.42,14.50,49.22,1023.45,2027.87,2307.85,2285.23,2612.01,599.92,596.88,45.53,0000 0000 0000 0000 000000
2017-04-25 00:54:21,0.05,3.41,0.00,24.52,27.60,30.41,14.56,49.18,1023.45,2027.84,2306.90,2284.86,2611.21,600.08,597.10,45.58,0000 0000 0000 0000 000000
2017-04-25 00:59:22,0.05,3.41,0.00,24.52,27.60,30.42,14.52,49.23,1023.45,2027.63,2306.00,2284.07,2610.53,600.30,597.30,45.63,0000 0000 0000 0000 000000
2017-04-25 01:04:23,0.07,3.42,0.00,24.48,27.60,30.43,14.53,49.19,1023.45,2027.63,2305.07,2283.59,2609.83,600.10,597.10,45.68,0000 0000 0000 0000 000000
2017-04-25 01:09:25,0.01,3.42,0.00,24.49,27.60,30.44,14.56,49.30,1023.45,2027.34,2304.17,2282.97,2609.04,600.27,597.31,45.73,0000 0000 0000 0000 000000
2017-04-25 01:14:26,0.08,3.42,0.00,24.49,27.60,30.44,14.58,49.35,1023.43,2027.12,2303.20,2282.13,2608.15,600.19,597.14,45.78,0000 0000 0000 0000 000000
2017-04-25 01:19:28,0.07,3.42,0.00,24.51,27.61,30.44,14.52,49.22,1023.45,2027.05,2302.45,2281.60,2607.44,600.31,597.33,45.83,0000 0000 0000 0000 000000
2017-04-25 01:24:29,0.06,3.43,0.00,24.54,27.62,30.45,14.55,49.23,1023.45,2027.02,2301.37,2280.88,2606.55,600.04,596.89,45.89,0000 0000 0000 0000 000000
2017-04-25 01:29:30,0.08,3.43,0.00,24.52,27.62,30.45,14.43,49.17,1023.45,2027.02,2300.05,2280.08,2605.56,599.74,596.73,45.94,0000 0000 0000 0000 000000
2017-04-25 01:34:31,0.07,3.44,0.00,24.50,27.62,30.46,14.46,49.21,1023.45,2027.01,2299.05,2279.39,2604.74,599.90,596.98,45.99,0000 0000 0000 0000 000000
2017-04-25 01:39:33,0.06,3.44,0.00,24.51,27.62,30.45,14.49,49.27,1023.23,2027.01,2298.04,2278.83,2603.90,599.98,596.68,46.04,0000 0000 0000 0000 000000
2017-04-25 01:44:34,0.07,3.45,0.00,24.50,27.62,30.43,14.40,49.19,1023.17,2027.01,2297.03,2278.04,2603.02,599.73,596.50,46.09,0000 0000 0000 0000 000000
2017-04-25 01:49:35,0.08,3.45,0.00,24.52,27.64,30.45,14.52,49.30,1023.20,2027.01,2296.02,2277.22,2602.10,599.90,596.74,46.14,0000 0000 0000 0000 000000
2017-04-25 01:54:36,0.08,3.45,0.00,24.53,27.65,30.45,14.49,49.38,1023.00,2027.00,2295.01,2276.67,2601.25,600.15,596.84,46.19,0000 0000 0000 0000 000000
2017-04-25 01:59:37,0.06,3.46,0.00,24.53,27.65,30.44,14.47,49.42,1022.96,2027.00,2293.98,2275.98,2600.37,599.84,596.56,46.24,0000 0000 0000 0000 000000
2017-04-25 02:04:38,0.09,3.46,0.00,24.53,27.65,30.46,14.48,49.38,1022.97,2027.00,2292.91,2275.17,2599.54,599.94,596.81,46.29,0000 0000 0000 0000 000000
2017-04-25 02:09:40,0.08,3.46,0.00,24.53,27.65,30.47,14.43,49.26,1022.99,2027.00,2291.82,2274.55,2598.65,599.93,596.62,46.34,0000 0000 0000 0000 000000
2017-04-25 02:14:41,0.06,3.47,0.00,24.50,27.66,30.48,14.42,49.20,1022.97,2027.00,2290.80,2273.89,2597.80,599.54,596.34,46.39,0000 0000 0000 0000 000000
2017-04-25 02:19:42,0.06,3.47,0.00,24.51,27.67,30.48,14.51,49.33,1023.00,2027.00,2289.98,2273.08,2597.01,600.09,596.89,46.44,0000 0000 0000 0000 000000
2017-04-25 02:24:44,0.08,3.48,0.00,24.51,27.67,30.47,14.44,49.31,1023.30,2027.00,2289.12,2272.57,2596.20,599.64,596.68,46.49,0000 0000 0000 0000 000000
2017-04-25 02:29:46,0.06,3.48,0.00,24.50,27.67,30.46,14.55,49.33,1023.39,2027.00,2288.13,2271.97,2595.35,600.39,597.37,46.54,0000 0000 0000 0000 000000
2017-04-25 02:34:47,0.08,3.48,0.00,24.52,27.67,30.47,14.46,49.39,1023.25,2027.00,2287.16,2271.18,2594.57,599.88,596.72,46.59,0000 0000 0000 0000 000000
2017-04-25 02:39:48,0.08,3.49,0.00,24.52,27.67,30.46,14.53,49.33,1023.39,2027.00,2286.25,2270.43,2593.71,600.56,597.43,46.64,0000 0000 0000 0000 000000
2017-04-25 02:44:50,0.07,3.49,0.00,24.52,27.67,30.47,14.51,49.33,1023.45,2027.00,2285.20,2269.77,2592.79,600.43,597.38,46.69,0000 0000 0000 0000 000000
2017-04-25 02:49:51,0.08,3.50,0.00,24.52,27.67,30.45,14.49,49.23,1023.45,2026.99,2284.00,2269.00,2591.79,599.80,596.79,46.74,0000 0000 0000 0000 000000
2017-04-25 02:54:52,0.09,3.50,0.00,24.53,27.67,30.47,14.52,49.34,1023.45,2026.99,2282.89,2268.18,2590.86,600.06,596.91,46.80,0000 0000 0000 0000 000000
2017-04-25 02:59:54,0.08,3.51,0.00,24.53,27.68,30.46,14.45,49.20,1023.45,2026.98,2281.84,2267.47,2589.93,599.70,596.80,46.85,0000 0000 0000 0000 000000
2017-04-25 03:04:55,0.06,3.51,0.00,24.54,27.68,30.47,14.45,49.17,1023.46,2026.99,2280.87,2266.79,2589.01,599.74,596.67,46.90,0000 0000 0000 0000 000000
2017-04-25 03:09:57,0.08,3.51,0.00,24.56,27.69,30.47,14.51,49.11,1023.47,2026.99,2279.78,2266.03,2588.10,600.10,596.96,46.95,0000 0000 0000 0000 000000
2017-04-25 03:14:58,0.10,3.52,0.00,24.54,27.69,30.47,14.48,49.23,1023.46,2026.99,2278.59,2265.21,2587.17,600.09,597.16,47.00,0000 0000 0000 0000 000000
2017-04-25 03:19:59,0.08,3.52,0.00,24.57,27.70,30.47,14.57,49.33,1023.45,2026.98,2277.57,2264.42,2586.15,599.91,596.81,47.05,0000 0000 0000 0000 000000
2017-04-25 03:25:01,0.09,3.53,0.00,24.55,27.70,30.47,14.53,49.38,1023.44,2026.98,2276.41,2263.54,2585.10,600.15,597.07,47.10,0000 0000 0000 0000 000000
2017-04-25 03:30:02,0.08,3.53,0.00,24.57,27.70,30.47,14.50,49.42,1023.11,2026.96,2275.18,2262.68,2584.00,600.11,596.92,47.15,0000 0000 0000 0000 000000
2017-04-25 03:35:03,0.13,3.54,0.00,24.58,27.70,30.48,14.45,49.43,1022.96,2026.96,2273.79,2261.66,2582.75,599.98,596.70,47.20,0000 0000 0000 0000 000000
2017-04-25 03:40:05,0.12,3.54,0.00,24.58,27.70,30.47,14.50,49.52,1023.00,2026.98,2272.37,2260.51,2581.41,600.19,596.75,47.25,0000 0000 0000 0000 000000
2017-04-25 03:45:06,0.12,3.55,0.00,24.59,27.70,30.48,14.50,49.37,1023.31,2026.97,2270.70,2259.39,2579.94,600.03,596.78,47.30,0000 0000 0000 0000 000000
2017-04-25 03:50:07,0.11,3.56,0.00,24.58,27.70,30.49,14.54,49.24,1023.45,2026.95,2269.22,2258.30,2578.68,600.16,597.09,47.35,0000 0000 0000 0000 000000
2017-04-25 03:55:09,0.10,3.56,0.00,24.58,27.71,30.47,14.45,49.15,1023.45,2026.91,2267.83,2257.26,2577.42,599.92,596.87,47.40,0000 0000 0000 0000 000000
2017-04-25 04:00:10,0.11,3.57,0.00,24.58,27.71,30.47,14.60,49.15,1023.46,2026.93,2266.35,2256.28,2576.22,600.45,597.31,47.45,0000 0000 0000 0000 000000
2017-04-25 04:05:11,0.12,3.57,0.00,24.60,27.71,30.48,14.50,49.27,1023.46,2026.88,2264.64,2255.21,2574.73,600.11,596.94,47.50,0000 0000 0000 0000 000000
2017-04-25 04:10:12,0.11,3.58,0.00,24.60,27.72,30.49,14.51,49.10,1023.46,2026.87,2263.16,2254.00,2573.45,599.99,596.81,47.55,0000 0000 0000 0000 000000
2017-04-25 04:15:14,0.13,3.59,0.00,24.60,27.72,30.49,14.54,49.14,1023.45,2026.90,2261.37,2252.85,2572.00,599.97,596.84,47.60,0000 0000 0000 0000 000000
2017-04-25 04:20:15,0.14,3.59,0.00,24.61,27.72,30.49,14.51,49.18,1023.46,2026.83,2259.91,2251.67,2570.61,599.87,596.69,47.65,0000 0000 0000 0000 000000
2017-04-25 04:25:17,0.12,3.60,0.00,24.60,27.72,30.49,14.49,49.06,1023.46,2026.91,2258.13,2250.52,2569.12,600.04,596.86,47.71,0000 0000 0000 0000 000000
2017-04-25 04:30:18,0.13,3.61,0.00,24.59,27.72,30.49,14.49,49.20,1023.47,2026.83,2256.32,2249.15,2567.49,599.95,596.81,47.76,0000 0000 0000 0000 000000
2017-04-25 04:35:19,0.17,3.61,0.00,24.61,27.72,30.49,14.50,49.15,1023.55,2026.74,2254.34,2247.71,2565.77,600.14,597.00,47.81,0000 0000 0000 0000 000000
2017-04-25 04:40:21,0.15,3.62,0.00,24.61,27.72,30.50,14.45,49.01,1023.87,2026.84,2252.20,2246.32,2564.06,599.73,596.83,47.86,0000 0000 0000 0000 000000
2017-04-25 04:45:22,0.17,3.63,0.00,24.62,27.73,30.48,14.44,49.02,1023.94,2026.89,2250.25,2244.81,2562.40,599.67,596.77,47.91,0000 0000 0000 0000 000000
2017-04-25 04:50:23,0.16,3.64,0.00,24.62,27.74,30.49,14.53,49.06,1023.92,2026.90,2248.15,2243.33,2560.55,600.10,597.27,47.96,0000 0000 0000 0000 000000
2017-04-25 04:55:24,0.19,3.65,0.00,24.63,27.75,30.49,14.50,49.12,1023.94,2026.92,2245.88,2241.72,2558.77,600.07,597.24,48.01,0000 0000 0000 0000 000000
2017-04-25 05:00:26,0.14,3.66,0.00,24.65,27.75,30.48,14.50,49.05,1023.94,2026.89,2243.86,2240.28,2557.00,600.01,597.01,48.06,0000 0000 0000 0000 000000
2017-04-25 05:05:26,0.17,3.67,0.00,24.64,27.75,30.49,14.50,49.10,1023.91,2026.95,2241.76,2238.86,2555.28,599.97,597.04,48.11,0000 0000 0000 0000 000000
2017-04-25 05:10:28,0.14,3.67,0.00,24.64,27.75,30.48,14.46,49.08,1023.81,2026.73,2239.87,2237.36,2553.42,599.77,596.82,48.16,0000 0000 0000 0000 000000
2017-04-25 05:15:29,0.17,3.68,0.00,24.66,27.75,30.49,14.46,49.10,1023.78,2026.77,2237.91,2235.78,2551.60,600.19,597.11,48.21,0000 0000 0000 0000 000000
2017-04-25 05:20:30,0.14,3.69,0.00,24.66,27.75,30.49,14.51,49.12,1023.81,2026.70,2235.96,2234.31,2549.85,599.90,596.81,48.26,0000 0000 0000 0000 000000
2017-04-25 05:25:31,0.16,3.70,0.00,24.67,27.77,30.49,14.53,49.13,1023.80,2026.48,2233.83,2232.76,2547.97,600.12,597.03,48.31,0000 0000 0000 0000 000000
2017-04-25 05:30:33,0.12,3.70,0.00,24.68,27.77,30.49,14.55,49.17,1023.84,2026.28,2231.92,2231.29,2546.19,599.91,596.76,48.36,0000 0000 0000 0000 000000
2017-04-25 05:35:34,0.17,3.71,0.00,24.66,27.77,30.48,14.45,49.09,1023.86,2026.20,2229.94,2229.72,2544.47,600.18,597.19,48.41,0000 0000 0000 0000 000000
2017-04-25 05:40:35,0.15,3.72,0.00,24.67,27.77,30.50,14.57,49.15,1023.76,2026.11,2227.88,2228.22,2542.60,600.07,596.95,48.46,0000 0000 0000 0000 000000
2017-04-25 05:45:36,0.18,3.73,0.00,24.67,27.77,30.50,14.45,49.14,1023.50,2026.08,2225.73,2226.64,2540.73,599.66,596.40,48.51,0000 0000 0000 0000 000000
2017-04-25 05:50:37,0.17,3.74,0.00,24.67,27.77,30.49,14.50,49.08,1023.52,2026.06,2223.54,2225.08,2538.82,599.89,596.61,48.56,0000 0000 0000 0000 000000
2017-04-25 05:55:39,0.17,3.75,0.00,24.67,27.78,30.50,14.46,49.15,1023.59,2026.04,2221.45,2223.61,2537.02,599.91,596.71,48.61,0000 0000 0000 0000 000000
2017-04-25 06:00:40,0.17,3.76,0.00,24.68,27.78,30.50,14.44,49.09,1023.61,2026.03,2219.32,2222.02,2535.20,599.70,596.42,48.67,0000 0000 0000 0000 000000
2017-04-25 06:05:42,0.17,3.76,0.00,24.68,27.78,30.50,14.47,49.20,1023.61,2026.02,2217.30,2220.53,2533.38,599.85,596.62,48.72,0000 0000 0000 0000 000000
2017-04-25 06:10:43,0.16,3.77,0.00,24.69,27.78,30.51,14.51,49.23,1023.49,2026.01,2215.25,2218.95,2531.58,600.02,596.57,48.77,0000 0000 0000 0000 000000
2017-04-25 06:15:44,0.18,3.78,0.00,24.71,27.79,30.51,14.45,49.06,1023.48,2026.01,2213.07,2217.46,2529.71,599.98,596.60,48.82,0000 0000 0000 0000 000000
2017-04-25 06:20:45,0.15,3.79,0.00,24.72,27.79,30.49,14.51,48.99,1023.49,2026.01,2211.08,2215.94,2528.01,600.41,596.94,48.87,0000 0000 0000 0000 000000
2017-04-25 06:25:47,0.17,3.80,0.00,24.73,27.79,30.50,14.47,49.13,1023.46,2026.01,2209.11,2214.49,2526.26,600.00,596.55,48.92,0000 0000 0000 0000 000000
2017-04-25 06:30:48,0.16,3.81,0.00,24.72,27.80,30.51,14.45,49.10,1023.45,2026.02,2207.00,2213.01,2524.39,599.85,596.48,48.97,0000 0000 0000 0000 000000
2017-04-25 06:35:50,0.18,3.82,0.00,24.73,27.80,30.50,14.55,49.06,1023.45,2026.01,2205.07,2211.58,2522.69,600.18,596.75,49.02,0000 0000 0000 0000 000000
2017-04-25 06:40:51,0.15,3.83,0.00,24.72,27.80,30.48,14.46,49.10,1023.46,2026.01,2203.16,2210.07,2520.96,599.77,596.30,49.07,0000 0000 0000 0000 000000
2017-04-25 06:45:52,0.18,3.83,0.00,24.74,27.80,30.50,14.40,49.04,1023.46,2026.01,2200.89,2208.63,2519.16,599.99,596.62,49.12,0000 0000 0000 0000 000000
2017-04-25 06:50:54,0.13,3.84,0.00,24.74,27.80,30.51,14.52,49.01,1023.46,2026.02,2199.15,2207.23,2517.53,600.14,596.61,49.17,0000 0000 0000 0000 000000
2017-04-25 06:55:55,0.17,3.85,0.00,24.73,27.80,30.50,14.48,49.03,1023.47,2026.00,2197.27,2205.76,2515.85,600.23,596.79,49.22,0000 0000 0000 0000 000000
2017-04-25 07:00:56,0.15,3.86,0.00,24.75,27.81,30.49,14.45,48.98,1023.47,2026.00,2195.41,2204.42,2514.18,600.04,596.40,49.27,0000 0000 0000 0000 000000
2017-04-25 07:05:58,0.17,3.87,0.00,24.76,27.82,30.48,14.46,48.98,1023.46,2026.01,2193.28,2202.94,2512.37,600.10,596.71,49.32,0000 0000 0000 0000 000000
2017-04-25 07:10:59,0.15,3.87,0.00,24.77,27.82,30.48,14.46,48.83,1023.47,2026.00,2191.48,2201.61,2510.76,599.83,596.12,49.37,0000 0000 0000 0000 000000
2017-04-25 07:16:00,0.14,3.88,0.00,24.78,27.82,30.50,14.47,48.97,1023.47,2026.00,2189.64,2200.32,2509.17,600.21,596.67,49.42,0000 0000 0000 0000 000000
2017-04-25 07:21:02,0.15,3.89,0.00,24.81,27.82,30.50,14.46,49.04,1023.46,2026.00,2188.04,2198.91,2507.67,599.79,596.19,49.47,0000 0000 0000 0000 000000
2017-04-25 07:26:03,0.16,3.90,0.00,24.84,27.82,30.50,14.49,48.95,1023.47,2026.00,2186.11,2197.51,2505.97,600.11,596.34,49.53,0000 0000 0000 0000 000000
2017-04-25 07:31:04,0.16,3.91,0.00,24.86,27.82,30.50,14.52,49.01,1023.46,2026.00,2184.09,2196.07,2504.24,600.05,596.41,49.58,0000 0000 0000 0000 000000
2017-04-25 07:36:05,0.17,3.91,0.00,24.87,27.82,30.50,14.51,49.08,1023.46,2026.00,2182.16,2194.63,2502.46,600.16,596.43,49.63,0000 0000 0000 0000 000000
2017-04-25 07:41:06,0.15,3.92,0.00,24.90,27.83,30.50,14.47,49.05,1023.46,2026.00,2180.28,2193.27,2500.75,599.84,596.06,49.68,0000 0000 0000 0000 000000
2017-04-25 07:46:07,0.17,3.93,0.00,24.92,27.84,30.51,14.40,48.94,1023.45,2026.00,2178.33,2191.80,2499.11,599.52,595.86,49.73,0000 0000 0000 0000 000000
2017-04-25 07:51:09,0.16,3.94,0.00,24.96,27.85,30.53,14.46,48.88,1023.47,2026.00,2176.40,2190.47,2497.44,600.05,596.10,49.78,0000 0000 0000 0000 000000
2017-04-25 07:56:10,0.14,3.95,0.00,24.98,27.85,30.51,14.42,48.92,1023.47,2026.00,2174.54,2189.10,2495.84,599.93,595.94,49.83,0000 0000 0000 0000 000000
2017-04-25 08:01:11,0.16,3.96,0.00,25.01,27.86,30.55,14.45,48.95,1023.46,2026.00,2172.59,2187.70,2494.26,600.01,595.98,49.88,0000 0000 0000 0000 000000
2017-04-25 08:06:12,0.15,3.96,0.00,25.04,27.87,30.56,14.46,48.95,1023.46,2025.99,2170.84,2186.36,2492.59,599.99,595.94,49.93,0000 0000 0000 0000 000000
2017-04-25 08:11:14,0.16,3.97,0.00,25.05,27.87,30.60,14.43,48.88,1023.47,2025.99,2168.92,2184.92,2490.95,599.83,595.78,49.98,0000 0000 0000 0000 000000
2017-04-25 08:16:15,0.15,3.98,0.00,25.05,27.90,30.61,14.46,48.95,1023.47,2025.98,2167.24,2183.58,2489.34,600.18,596.11,50.03,0000 0000 0000 0000 000000
2017-04-25 08:21:17,0.15,3.99,0.00,25.06,27.90,30.61,14.40,48.94,1023.47,2025.99,2165.43,2182.23,2487.76,599.97,595.90,50.08,0000 0000 0000 0000 000000
2017-04-25 08:26:18,0.14,3.99,0.00,25.07,27.92,30.62,14.47,48.92,1023.47,2025.97,2163.87,2180.85,2486.21,600.00,595.97,50.13,0000 0000 0000 0000 000000
2017-04-25 08:31:19,0.17,4.00,0.00,25.10,27.92,30.65,14.56,48.95,1023.46,2025.95,2161.87,2179.52,2484.52,600.28,596.02,50.18,0000 0000 0000 0000 000000
2017-04-25 08:36:21,0.12,4.01,0.00,25.11,27.94,30.66,14.36,48.90,1023.46,2025.88,2160.26,2178.16,2482.92,599.91,595.74,50.23,0000 0000 0000 0000 000000
2017-04-25 08:41:22,0.14,4.02,0.00,25.10,27.95,30.65,14.38,48.91,1023.46,2025.59,2158.37,2176.70,2481.24,599.90,595.70,50.28,0000 0000 0000 0000 000000
2017-04-25 08:46:24,0.12,4.02,0.00,25.09,27.96,30.69,14.51,48.92,1023.46,2025.34,2156.45,2175.34,2479.59,599.91,595.63,50.33,0000 0000 0000 0000 000000
2017-04-25 08:51:25,0.13,4.03,0.00,25.11,27.97,30.71,14.42,49.02,1023.46,2025.15,2154.59,2174.05,2477.96,600.18,595.92,50.38,0000 0000 0000 0000 000000
2017-04-25 08:56:26,0.15,4.04,0.00,25.13,27.98,30.72,14.43,48.85,1023.47,2025.06,2152.73,2172.64,2476.39,600.28,596.05,50.44,0000 0000 0000 0000 000000
2017-04-25 09:01:28,0.16,4.05,0.00,25.14,28.00,30.73,14.41,48.91,1023.47,2025.10,2150.86,2171.38,2474.68,599.72,595.46,50.49,0000 0000 0000 0000 000000
2017-04-25 09:06:29,0.14,4.06,0.00,25.16,28.00,30.72,14.43,48.90,1023.48,2025.07,2148.95,2169.98,2473.01,599.88,595.65,50.54,0000 0000 0000 0000 000000
2017-04-25 09:11:31,0.16,4.06,0.00,25.18,28.02,30.75,14.43,48.86,1023.46,2025.01,2147.37,2168.68,2471.54,600.02,595.70,50.59,0000 0000 0000 0000 000000
2017-04-25 09:16:32,0.15,4.07,0.00,25.21,28.02,30.74,14.49,48.77,1023.45,2025.00,2145.67,2167.31,2469.82,600.02,595.70,50.64,0000 0000 0000 0000 000000
2017-04-25 09:21:33,0.14,4.08,0.00,25.21,28.04,30.75,14.43,48.88,1023.46,2025.00,2143.90,2165.92,2468.37,599.97,595.52,50.69,0000 0000 0000 0000 000000
2017-04-25 09:26:35,0.17,4.09,0.00,25.22,28.05,30.77,14.40,48.86,1023.45,2025.00,2142.06,2164.58,2466.68,599.97,595.54,50.74,0000 0000 0000 0000 000000
2017-04-25 09:31:36,0.13,4.09,0.00,25.25,28.06,30.75,14.51,48.83,1023.45,2025.00,2140.53,2163.34,2465.29,600.13,595.70,50.79,0000 0000 0000 0000 000000
2017-04-25 09:36:37,0.17,4.10,0.00,25.25,28.07,30.78,14.40,48.76,1023.45,2025.00,2138.63,2161.87,2463.67,599.85,595.41,50.84,0000 0000 0000 0000 000000
2017-04-25 09:41:39,0.16,4.11,0.00,25.26,28.08,30.79,14.45,48.84,1023.45,2025.00,2136.75,2160.55,2461.96,600.00,595.52,50.89,0000 0000 0000 0000 000000
2017-04-25 09:46:41,0.15,4.12,0.00,25.30,28.10,30.79,14.46,48.87,1023.45,2025.00,2134.95,2159.26,2460.40,600.20,595.62,50.94,0000 0000 0000 0000 000000
2017-04-25 09:51:42,0.16,4.13,0.00,25.30,28.10,30.87,14.37,48.81,1023.45,2024.99,2133.11,2157.86,2458.73,599.89,595.31,50.99,0000 0000 0000 0000 000000
2017-04-25 09:56:43,0.15,4.13,0.00,25.33,28.12,30.85,14.39,48.77,1023.45,2024.98,2131.44,2156.56,2457.23,599.75,595.15,51.04,0000 0000 0000 0000 000000
2017-04-25 10:01:44,0.15,4.14,0.00,25.35,28.13,30.88,14.45,48.88,1023.43,2024.96,2129.61,2155.23,2455.66,600.00,595.31,51.09,0000 0000 0000 0000 000000
2017-04-25 10:06:46,0.15,4.15,0.00,25.35,28.15,30.90,14.42,48.80,1023.44,2024.92,2127.71,2153.84,2454.02,599.94,595.21,51.14,0000 0000 0000 0000 000000
2017-04-25 10:11:47,0.14,4.16,0.00,25.36,28.15,30.95,14.40,48.83,1023.43,2024.67,2125.86,2152.54,2452.48,600.00,595.33,51.19,0000 0000 0000 0000 000000
2017-04-25 10:16:49,0.11,4.16,0.00,25.38,28.17,30.98,14.40,48.79,1023.40,2024.45,2124.04,2151.26,2450.79,599.89,595.09,51.24,0000 0000 0000 0000 000000
2017-04-25 10:21:50,0.12,4.17,0.00,25.39,28.17,31.04,14.48,48.75,1023.26,2024.15,2122.27,2149.82,2449.24,600.34,595.41,51.29,0000 0000 0000 0000 000000
2017-04-25 10:26:51,0.16,4.18,0.00,25.42,28.19,31.05,14.39,48.75,1023.16,2024.05,2120.58,2148.53,2447.71,600.00,595.02,51.35,0000 0000 0000 0000 000000
2017-04-25 10:31:52,0.14,4.19,0.00,25.43,28.20,31.08,14.38,48.70,1023.01,2024.02,2118.79,2147.25,2446.17,599.79,594.71,51.40,0000 0000 0000 0000 000000
2017-04-25 10:36:54,0.16,4.19,0.00,25.45,28.22,31.11,14.47,48.71,1023.00,2024.01,2116.97,2145.88,2444.62,599.93,594.79,51.45,0000 0000 0000 0000 000000
2017-04-25 10:41:55,0.15,4.20,0.00,25.48,28.23,31.12,14.38,48.71,1022.99,2024.00,2115.23,2144.60,2443.04,599.75,594.67,51.50,0000 0000 0000 0000 000000
2017-04-25 10:46:57,0.14,4.21,0.00,25.51,28.25,31.14,14.45,48.83,1022.98,2024.00,2113.47,2143.28,2441.49,599.91,594.63,51.55,0000 0000 0000 0000 000000
2017-04-25 10:51:58,0.16,4.22,0.00,25.55,28.25,31.15,14.45,48.88,1022.96,2024.00,2111.69,2141.87,2439.89,599.82,594.50,51.60,0000 0000 0000 0000 000000
2017-04-25 10:57:00,0.15,4.23,0.00,25.60,28.27,31.17,14.39,48.83,1022.96,2024.00,2109.98,2140.56,2438.35,600.13,594.73,51.65,0000 0000 0000 0000 000000
2017-04-25 11:02:01,0.14,4.23,0.00,25.66,28.27,31.18,14.39,48.73,1022.96,2023.99,2108.29,2139.24,2436.76,600.09,594.56,51.70,0000 0000 0000 0000 000000
2017-04-25 11:07:02,0.15,4.24,0.00,25.71,28.29,31.20,14.47,48.70,1022.92,2023.98,2106.58,2137.92,2435.26,600.39,594.61,51.75,0000 0000 0000 0000 000000
2017-04-25 11:12:03,0.16,4.25,0.00,25.75,28.30,31.20,14.33,48.73,1022.91,2023.98,2104.75,2136.63,2433.77,599.98,594.12,51.80,0000 0000 0000 0000 000000
2017-04-25 11:17:04,0.14,4.26,0.00,25.77,28.30,31.21,14.35,48.75,1022.92,2023.95,2103.01,2135.42,2432.30,599.79,594.06,51.85,0000 0000 0000 0000 000000
2017-04-25 11:22:06,0.13,4.26,0.00,25.77,28.30,31.20,14.39,48.73,1022.95,2023.91,2101.27,2134.09,2430.84,599.80,593.99,51.90,0000 0000 0000 0000 000000
2017-04-25 11:27:07,0.14,4.27,0.00,25.76,28.32,31.16,14.40,48.78,1022.95,2023.80,2099.59,2132.79,2429.40,600.14,594.37,51.95,0000 0000 0000 0000 000000
2017-04-25 11:32:08,0.15,4.28,0.00,25.75,28.32,31.18,14.47,48.80,1022.92,2023.70,2097.85,2131.53,2427.88,599.94,594.22,52.00,0000 0000 0000 0000 000000
2017-04-25 11:37:09,0.12,4.29,0.00,25.73,28.32,31.15,14.40,48.76,1022.83,2023.56,2096.28,2130.33,2426.51,599.94,594.10,52.05,0000 0000 0000 0000 000000
2017-04-25 11:42:10,0.13,4.29,0.00,25.68,28.32,31.12,14.43,48.72,1022.67,2023.34,2094.48,2128.99,2424.88,600.04,594.25,52.10,0000 0000 0000 0000 000000
2017-04-25 11:47:12,0.16,4.30,0.00,25.57,28.32,31.12,14.41,48.74,1022.60,2023.37,2092.71,2127.76,2423.51,599.71,594.07,52.15,0000 0000 0000 0000 000000
2017-04-25 11:52:13,0.13,4.31,0.00,25.48,28.32,31.09,14.38,48.78,1022.52,2023.20,2091.02,2126.53,2422.01,600.07,594.60,52.21,0000 0000 0000 0000 000000
2017-04-25 11:57:14,0.14,4.31,0.00,25.40,28.32,31.11,14.40,48.80,1022.49,2023.28,2089.32,2125.34,2420.59,599.98,594.70,52.26,0000 0000 0000 0000 000000
2017-04-25 12:02:15,0.16,4.32,0.00,25.33,28.30,31.10,14.46,48.83,1022.49,2023.27,2087.54,2124.08,2419.12,600.13,594.92,52.31,0000 0000 0000 0000 000000
2017-04-25 12:07:16,0.15,4.33,0.00,25.28,28.30,31.08,14.46,48.77,1022.49,2023.24,2085.83,2122.85,2417.66,600.21,595.11,52.36,0000 0000 0000 0000 000000
2017-04-25 12:12:17,0.14,4.34,0.00,25.23,28.30,31.07,14.41,48.77,1022.49,2023.20,2084.32,2121.68,2416.41,600.06,595.04,52.41,0000 0000 0000 0000 000000
2017-04-25 12:17:18,0.16,4.34,0.00,25.20,28.28,31.08,14.46,48.78,1022.48,2023.27,2082.47,2120.48,2414.83,600.22,595.28,52.46,0000 0000 0000 0000 000000
2017-04-25 12:22:19,0.15,4.35,0.00,25.17,28.27,31.06,14.46,48.75,1022.48,2023.41,2080.73,2119.30,2413.43,599.63,594.91,52.51,0000 0000 0000 0000 000000
2017-04-25 12:27:21,0.16,4.36,0.00,25.15,28.26,31.06,14.45,48.75,1022.48,2023.52,2079.09,2118.05,2412.03,600.19,595.47,52.56,0000 0000 0000 0000 000000
2017-04-25 12:32:22,0.14,4.37,0.00,25.12,28.25,31.03,14.41,48.80,1022.48,2023.49,2077.47,2116.87,2410.60,599.85,595.10,52.61,0000 0000 0000 0000 000000
2017-04-25 12:37:23,0.16,4.38,0.00,25.09,28.23,31.02,14.37,48.82,1022.46,2023.76,2076.22,2115.75,2409.53,599.98,595.29,52.66,0000 0000 0000 0000 000000
2017-04-25 12:42:25,0.17,4.38,0.00,25.07,28.22,31.00,14.53,48.83,1022.43,2023.88,2074.30,2114.57,2407.95,600.08,595.41,52.71,0000 0000 0000 0000 000000
2017-04-25 12:47:26,0.15,4.39,0.00,25.05,28.20,31.01,14.47,48.85,1022.26,2023.92,2072.53,2113.42,2406.57,599.81,595.00,52.76,0000 0000 0000 0000 000000
2017-04-25 12:52:27,0.14,4.40,0.00,25.02,28.19,30.98,14.40,48.78,1022.02,2023.97,2070.77,2112.29,2405.23,599.93,595.04,52.81,0000 0000 0000 0000 000000
2017-04-25 12:57:28,0.12,4.41,0.00,25.01,28.17,30.97,14.52,48.81,1022.01,2023.97,2069.49,2111.19,2403.94,599.88,595.10,52.86,0000 0000 0000 0000 000000